Change the Weather History Date:

Tuesday, January 29, 2013

  Actual Average Record
Temperature  
Mean Temperature 59 °F -  
Max Temperature 68 °F 46 °F 73 °F (2002)
Min Temperature 50 °F 27 °F 0 °F (2014)
Degree Days  
Heating Degree Days 6    
Growing Degree Days 9 (Base 50)    
Moisture  
Dew Point 51 °F    
Average Humidity 74    
Maximum Humidity 82    
Minimum Humidity 60    
Precipitation  
Precipitation 0.00 in - - ()
Sea Level Pressure  
Sea Level Pressure 30.03 in    
Wind  
Wind Speed 7 mph (South)    
Max Wind Speed 17 mph    
Max Gust Speed 28 mph    
Visibility 10 miles    
Events Rain    
Averages and records for this station are not official NWS values.
T = Trace of Precipitation, MM = Missing Value Source: NWS Daily Summary

Daily Weather History Graph

Daily Weather History Graph

Search for Another Location

Airport or City:

Trip Planner

Search our weather history database for the weather conditions in past years. The results will help you decide how hot, cold, wet, or windy it might be!

Date:

Astronomy

Jan. 29, 2013 Rise Set
Actual Time 7:43 AM EST 6:00 PM EST
Civil Twilight 7:15 AM EST 6:28 PM EST
Nautical Twilight 6:44 AM EST 6:59 PM EST
Astronomical Twilight 6:13 AM EST 7:29 PM EST
Moon 8:50 PM EST 8:44 AM EST
Length of Visible Light 11h 12m
Length of Day
10h 17m
Waning Gibbous, 94% of the Moon is Illuminated
Jan 29
Waning Gibbous
Feb 3
Last Quarter
Feb 10
New
Feb 17
First Quarter
Feb 25
Full

Hourly Weather History & Observations

Time (EST) Temp. Dew Point Humidity Pressure Visibility Wind Dir Wind Speed Gust Speed Precip Events Conditions
12:15 AM 51.8 °F 44.6 °F 76% 30.18 in 10.0 mi SSE 3.5 mph - N/A Rain Light Rain
12:35 AM 51.8 °F 44.6 °F 76% 30.18 in 10.0 mi South 4.6 mph - N/A   Overcast
12:55 AM 51.8 °F 44.6 °F 76% 30.18 in 10.0 mi South 4.6 mph - N/A   Overcast
1:15 AM 51.8 °F 44.6 °F 76% 30.17 in 10.0 mi SSE 4.6 mph - N/A   Overcast
1:35 AM 51.8 °F 44.6 °F 76% 30.16 in 10.0 mi South 4.6 mph - N/A   Scattered Clouds
1:55 AM 50.0 °F 44.6 °F 82% 30.17 in 10.0 mi South 3.5 mph - N/A   Scattered Clouds
2:15 AM 50.0 °F 44.6 °F 82% 30.16 in 10.0 mi SSE 4.6 mph - N/A   Scattered Clouds
2:35 AM 50.0 °F 44.6 °F 82% 30.16 in 10.0 mi South 4.6 mph - N/A   Scattered Clouds
2:55 AM 50.0 °F 44.6 °F 82% 30.16 in 10.0 mi South 5.8 mph - N/A   Mostly Cloudy
3:15 AM 51.8 °F 44.6 °F 76% 30.15 in 10.0 mi South 5.8 mph - N/A   Overcast
3:35 AM 51.8 °F 44.6 °F 76% 30.15 in 10.0 mi South 4.6 mph - N/A   Overcast
3:55 AM 51.8 °F 44.6 °F 76% 30.14 in 10.0 mi South 4.6 mph - N/A   Scattered Clouds
4:15 AM 51.8 °F 44.6 °F 76% 30.13 in 10.0 mi South 3.5 mph - N/A   Scattered Clouds
4:35 AM 51.8 °F 46.4 °F 82% 30.13 in 10.0 mi Calm Calm - N/A   Overcast
4:55 AM 51.8 °F 46.4 °F 82% 30.12 in 10.0 mi South 4.6 mph - N/A   Overcast
5:15 AM 51.8 °F 46.4 °F 82% 30.12 in 10.0 mi South 5.8 mph - N/A   Overcast
5:35 AM 51.8 °F 46.4 °F 82% 30.12 in 10.0 mi South 5.8 mph - N/A   Overcast
5:55 AM 53.6 °F 46.4 °F 77% 30.11 in 10.0 mi South 5.8 mph - N/A   Overcast
6:15 AM 53.6 °F 46.4 °F 77% 30.11 in 10.0 mi South 4.6 mph - N/A   Overcast
6:35 AM 53.6 °F 46.4 °F 77% 30.11 in 10.0 mi South 4.6 mph - N/A   Overcast
6:55 AM 53.6 °F 46.4 °F 77% 30.11 in 10.0 mi SSW 5.8 mph - N/A   Overcast
7:15 AM 53.6 °F 48.2 °F 82% 30.12 in 10.0 mi SSW 4.6 mph - N/A   Overcast
7:35 AM 53.6 °F 48.2 °F 82% 30.12 in 10.0 mi South 5.8 mph - N/A   Overcast
7:55 AM 55.4 °F 48.2 °F 77% 30.12 in 10.0 mi South 4.6 mph - N/A   Overcast
8:15 AM 53.6 °F 48.2 °F 82% 30.12 in 10.0 mi South 4.6 mph - N/A   Mostly Cloudy
8:35 AM 55.4 °F 50.0 °F 82% 30.11 in 10.0 mi South 8.1 mph - N/A   Scattered Clouds
8:55 AM 55.4 °F 50.0 °F 82% 30.12 in 7.0 mi SSW 6.9 mph - N/A   Scattered Clouds
9:15 AM 57.2 °F 51.8 °F 82% 30.12 in 7.0 mi SSW 5.8 mph - N/A   Overcast
9:35 AM 59.0 °F 51.8 °F 77% 30.12 in 7.0 mi SSW 5.8 mph - N/A   Overcast
9:55 AM 59.0 °F 51.8 °F 77% 30.12 in 10.0 mi SSW 10.4 mph - N/A   Mostly Cloudy
10:15 AM 60.8 °F 51.8 °F 72% 30.12 in 10.0 mi SSW 9.2 mph 19.6 mph N/A   Scattered Clouds
10:35 AM 60.8 °F 51.8 °F 72% 30.11 in 10.0 mi SSW 12.7 mph 20.7 mph N/A   Clear
10:55 AM 62.6 °F 51.8 °F 68% 30.11 in 10.0 mi SSW 15.0 mph 20.7 mph N/A   Clear
11:15 AM 62.6 °F 51.8 °F 68% 30.10 in 10.0 mi South 12.7 mph 20.7 mph N/A   Clear
11:35 AM 62.6 °F 51.8 °F 68% 30.09 in 10.0 mi SSW 17.3 mph 24.2 mph N/A   Scattered Clouds
11:55 AM 62.6 °F 51.8 °F 68% 30.08 in 10.0 mi SSW 17.3 mph 24.2 mph N/A   Mostly Cloudy
12:15 PM 62.6 °F 53.6 °F 72% 30.08 in 10.0 mi South 10.4 mph 18.4 mph N/A   Mostly Cloudy
12:35 PM 62.6 °F 53.6 °F 72% 30.06 in 10.0 mi South 8.1 mph 19.6 mph N/A   Overcast
12:55 PM 64.4 °F 53.6 °F 68% 30.05 in 10.0 mi SSW 10.4 mph 17.3 mph N/A   Mostly Cloudy
1:15 PM 64.4 °F 53.6 °F 68% 30.04 in 10.0 mi SSW 9.2 mph - N/A   Mostly Cloudy
1:35 PM 64.4 °F 53.6 °F 68% 30.02 in 10.0 mi South 5.8 mph - N/A   Mostly Cloudy
1:55 PM 64.4 °F 53.6 °F 68% 30.01 in 10.0 mi South 8.1 mph - N/A   Overcast
2:15 PM 66.2 °F 53.6 °F 64% 29.99 in 10.0 mi South 4.6 mph - N/A   Overcast
2:35 PM 68.0 °F 53.6 °F 60% 29.98 in 10.0 mi SSW 11.5 mph 16.1 mph N/A   Scattered Clouds
2:55 PM 68.0 °F 53.6 °F 60% 29.97 in 10.0 mi South 10.4 mph 16.1 mph N/A   Mostly Cloudy
3:15 PM 68.0 °F 55.4 °F 64% 29.96 in 10.0 mi South 15.0 mph 21.9 mph N/A   Overcast
3:35 PM 66.2 °F 53.6 °F 64% 29.96 in 10.0 mi South 13.8 mph 21.9 mph N/A   Mostly Cloudy
3:55 PM 66.2 °F 53.6 °F 64% 29.95 in 10.0 mi South 12.7 mph 18.4 mph N/A   Mostly Cloudy
4:15 PM 66.2 °F 55.4 °F 68% 29.93 in 10.0 mi South 10.4 mph 17.3 mph N/A   Mostly Cloudy
4:35 PM 64.4 °F 55.4 °F 73% 29.93 in 10.0 mi South 11.5 mph - N/A   Mostly Cloudy
4:55 PM 64.4 °F 55.4 °F 73% 29.93 in 10.0 mi SSW 16.1 mph 27.6 mph N/A   Overcast
5:15 PM 64.4 °F 55.4 °F 73% 29.93 in 10.0 mi SSW 16.1 mph 21.9 mph N/A   Overcast
5:35 PM 64.4 °F 55.4 °F 73% 29.93 in 10.0 mi SSW 15.0 mph 24.2 mph N/A   Overcast
5:55 PM 62.6 °F 55.4 °F 77% 29.93 in 10.0 mi South 10.4 mph 25.3 mph N/A   Overcast
6:15 PM 62.6 °F 55.4 °F 77% 29.93 in 10.0 mi South 10.4 mph 16.1 mph N/A   Overcast
6:35 PM 62.6 °F 55.4 °F 77% 29.93 in 10.0 mi South 11.5 mph 18.4 mph N/A   Overcast
6:55 PM 62.6 °F 55.4 °F 77% 29.93 in 10.0 mi South 8.1 mph 16.1 mph N/A   Overcast
7:15 PM 62.6 °F 55.4 °F 77% 29.94 in 10.0 mi SSW 10.4 mph - N/A   Overcast
7:35 PM 62.6 °F 55.4 °F 77% 29.93 in 10.0 mi South 6.9 mph 16.1 mph N/A   Overcast
7:55 PM 62.6 °F 55.4 °F 77% 29.92 in 10.0 mi South 8.1 mph - N/A   Overcast
8:15 PM 62.6 °F 55.4 °F 77% 29.90 in 10.0 mi South 9.2 mph - N/A   Scattered Clouds
8:35 PM 62.6 °F 55.4 °F 77% 29.89 in 10.0 mi South 9.2 mph 18.4 mph N/A   Scattered Clouds
8:55 PM 62.6 °F 55.4 °F 77% 29.89 in 10.0 mi SSW 10.4 mph 16.1 mph N/A   Scattered Clouds
9:15 PM 62.6 °F 53.6 °F 72% 29.88 in 10.0 mi South 8.1 mph 16.1 mph N/A   Mostly Cloudy
9:35 PM 62.6 °F 53.6 °F 72% 29.87 in 10.0 mi South 6.9 mph - N/A   Scattered Clouds
9:55 PM 62.6 °F 53.6 °F 72% 29.85 in 10.0 mi South 8.1 mph 17.3 mph N/A   Clear
10:15 PM 62.6 °F 53.6 °F 72% 29.84 in 10.0 mi South 11.5 mph 18.4 mph N/A   Clear
10:35 PM 62.6 °F 53.6 °F 72% 29.83 in 10.0 mi South 10.4 mph 18.4 mph N/A   Clear
10:55 PM 64.4 °F 53.6 °F 68% 29.81 in 10.0 mi South 12.7 mph 19.6 mph N/A   Clear
11:15 PM 64.4 °F 53.6 °F 68% 29.80 in 10.0 mi South 12.7 mph 23.0 mph N/A   Clear
11:35 PM 64.4 °F 53.6 °F 68% 29.78 in 10.0 mi SSW 12.7 mph 18.4 mph N/A   Scattered Clouds
11:55 PM 64.4 °F 55.4 °F 73% 29.77 in 10.0 mi SSW 9.2 mph 24.2 mph N/A   Scattered Clouds